Weather History for KVDI - November, 2012

Change the Weather History Date:

Sunday, November 18, 2012

  Actual Average (KAZE) Record (KAZE)
Temperature  
Mean Temperature 60 °F -  
Max Temperature 68 °F 66 °F 95 °F (2013)
Min Temperature 51 °F 47 °F 31 °F (2014)
Degree Days  
Heating Degree Days 6    
Growing Degree Days 10 (Base 50)    
Moisture  
Dew Point 47 °F    
Average Humidity 64    
Maximum Humidity 72    
Minimum Humidity 52    
Precipitation  
Precipitation 0.00 in - - ()
Sea Level Pressure  
Sea Level Pressure 30.28 in    
Wind  
Wind Speed 10 mph (NNE)    
Max Wind Speed 15 mph    
Max Gust Speed 21 mph    
Visibility 10 miles    
Events      
Averages and records for this station are not official NWS values.
T = Trace of Precipitation, MM = Missing Value Source: NWS Daily Summary

Daily Weather History Graph

Daily Weather History Graph

Search for Another Location

Airport or City:

Trip Planner

Search our weather history database for the weather conditions in past years. The results will help you decide how hot, cold, wet, or windy it might be!

Date:

Astronomy

Nov. 18, 2012 Rise Set
Actual Time 7:01 AM EST 5:27 PM EST
Civil Twilight 6:35 AM EST 5:53 PM EST
Nautical Twilight 6:05 AM EST 6:23 PM EST
Astronomical Twilight 5:36 AM EST 6:52 PM EST
Moon 11:31 AM EST (11/18) 10:40 PM EST (11/18)
Length of Visible Light 11h 18m
Length of Day
10h 25m
Waxing Crescent, 30% of the Moon is Illuminated
Nov 18
Waxing Crescent
Nov 20
First Quarter
Nov 28
Full
Dec 6
Last Quarter
Dec 13
New

Hourly Weather History & Observations

Time (EST) Temp. Dew Point Humidity Pressure Visibility Wind Dir Wind Speed Gust Speed Precip Events Conditions
12:15 AM 55.4 °F 42.8 °F 63% 30.31 in 10.0 mi NE 12.7 mph 18.4 mph N/A   Overcast
12:35 AM 55.4 °F 42.8 °F 63% 30.30 in 10.0 mi NE 11.5 mph 16.1 mph N/A   Overcast
12:55 AM 55.4 °F 42.8 °F 63% 30.29 in 10.0 mi NE 11.5 mph 18.4 mph N/A   Overcast
1:15 AM 55.4 °F 42.8 °F 63% 30.29 in 10.0 mi NE 9.2 mph 16.1 mph N/A   Overcast
1:35 AM 55.4 °F 42.8 °F 63% 30.28 in 10.0 mi NE 10.4 mph 17.3 mph N/A   Overcast
1:55 AM 53.6 °F 42.8 °F 67% 30.28 in 10.0 mi NE 10.4 mph - N/A   Overcast
2:15 AM 55.4 °F 42.8 °F 63% 30.28 in 10.0 mi NNE 10.4 mph - N/A   Overcast
2:55 AM 53.6 °F 42.8 °F 67% 30.28 in 10.0 mi NNE 10.4 mph - N/A   Overcast
3:15 AM 53.6 °F 42.8 °F 67% 30.29 in 10.0 mi NNE 6.9 mph - N/A   Overcast
3:35 AM 53.6 °F 42.8 °F 67% 30.29 in 10.0 mi NNE 8.1 mph - N/A   Overcast
3:55 AM 53.6 °F 42.8 °F 67% 30.28 in 10.0 mi NNE 9.2 mph - N/A   Overcast
4:15 AM 53.6 °F 42.8 °F 67% 30.29 in 10.0 mi NNE 8.1 mph - N/A   Overcast
4:35 AM 53.6 °F 42.8 °F 67% 30.29 in 10.0 mi NNE 10.4 mph - N/A   Overcast
4:55 AM 53.6 °F 42.8 °F 67% 30.30 in 10.0 mi NE 8.1 mph - N/A   Overcast
5:15 AM 53.6 °F 42.8 °F 67% 30.30 in 10.0 mi NNE 8.1 mph - N/A   Overcast
5:35 AM 53.6 °F 42.8 °F 67% 30.30 in 10.0 mi NNE 8.1 mph - N/A   Overcast
5:55 AM 51.8 °F 41.0 °F 67% 30.31 in 10.0 mi NNE 9.2 mph - N/A   Mostly Cloudy
6:15 AM 53.6 °F 41.0 °F 62% 30.30 in 10.0 mi NNE 9.2 mph - N/A   Overcast
6:35 AM 51.8 °F 41.0 °F 67% 30.30 in 10.0 mi NNE 10.4 mph - N/A   Mostly Cloudy
6:55 AM 51.8 °F 41.0 °F 67% 30.30 in 10.0 mi NNE 8.1 mph - N/A   Scattered Clouds
7:15 AM 51.8 °F 41.0 °F 67% 30.30 in 10.0 mi NNE 6.9 mph - N/A   Scattered Clouds
7:35 AM 51.8 °F 42.8 °F 71% 30.31 in 10.0 mi North 8.1 mph - N/A   Clear
7:55 AM 53.6 °F 42.8 °F 67% 30.31 in 10.0 mi North 6.9 mph - N/A   Clear
8:15 AM 53.6 °F 42.8 °F 67% 30.31 in 10.0 mi North 8.1 mph - N/A   Clear
8:35 AM 55.4 °F 42.8 °F 63% 30.31 in 10.0 mi NNE 11.5 mph - N/A   Clear
8:55 AM 57.2 °F 44.6 °F 63% 30.31 in 10.0 mi NNE 12.7 mph 17.3 mph N/A   Clear
9:15 AM 57.2 °F 44.6 °F 63% 30.32 in 10.0 mi NNE 11.5 mph 18.4 mph N/A   Mostly Cloudy
9:35 AM 57.2 °F 44.6 °F 63% 30.33 in 10.0 mi NNE 9.2 mph - N/A   Overcast
9:55 AM 59.0 °F 46.4 °F 63% 30.33 in 10.0 mi North 10.4 mph - N/A   Mostly Cloudy
10:15 AM 60.8 °F 46.4 °F 59% 30.32 in 10.0 mi NE 12.7 mph 19.6 mph N/A   Mostly Cloudy
10:35 AM 62.6 °F 46.4 °F 55% 30.32 in 10.0 mi North 11.5 mph 17.3 mph N/A   Scattered Clouds
10:55 AM 62.6 °F 48.2 °F 59% 30.32 in 10.0 mi NNE 8.1 mph - N/A   Scattered Clouds
11:15 AM 62.6 °F 48.2 °F 59% 30.31 in 10.0 mi NNE 11.5 mph - N/A   Scattered Clouds
11:55 AM 62.6 °F 48.2 °F 59% 30.29 in 10.0 mi NE 9.2 mph 12.7 mph N/A   Scattered Clouds
12:15 PM 64.4 °F 50.0 °F 59% 30.27 in 10.0 mi NE 10.4 mph 18.4 mph N/A   Scattered Clouds
12:35 PM 64.4 °F 50.0 °F 59% 30.27 in 10.0 mi NE 11.5 mph 16.1 mph N/A   Scattered Clouds
12:55 PM 66.2 °F 50.0 °F 56% 30.26 in 10.0 mi NNE 9.2 mph - N/A   Clear
1:15 PM 66.2 °F 51.8 °F 60% 30.25 in 10.0 mi NNE 10.4 mph 17.3 mph N/A   Clear
1:35 PM 66.2 °F 51.8 °F 60% 30.25 in 10.0 mi North 8.1 mph 17.3 mph N/A   Clear
1:55 PM 66.2 °F 51.8 °F 60% 30.24 in 10.0 mi NNE 11.5 mph - N/A   Clear
2:15 PM 66.2 °F 50.0 °F 56% 30.24 in 10.0 mi North 12.7 mph 19.6 mph N/A   Clear
2:35 PM 68.0 °F 50.0 °F 52% 30.24 in 10.0 mi North 11.5 mph 17.3 mph N/A   Clear
2:55 PM 68.0 °F 51.8 °F 56% 30.24 in 10.0 mi North 9.2 mph - N/A   Clear
3:15 PM 68.0 °F 51.8 °F 56% 30.24 in 10.0 mi NNE 11.5 mph - N/A   Clear
3:35 PM 68.0 °F 51.8 °F 56% 30.24 in 10.0 mi NNE 9.2 mph - N/A   Clear
3:55 PM 66.2 °F 51.8 °F 60% 30.24 in 10.0 mi North 10.4 mph - N/A   Clear
4:15 PM 64.4 °F 51.8 °F 64% 30.24 in 10.0 mi NNE 5.8 mph - N/A   Clear
4:35 PM 64.4 °F 51.8 °F 64% 30.24 in 10.0 mi NNE 9.2 mph - N/A   Mostly Cloudy
4:55 PM 62.6 °F 51.8 °F 68% 30.24 in 10.0 mi North 8.1 mph - N/A   Overcast
5:15 PM 62.6 °F 51.8 °F 68% 30.24 in 10.0 mi North 4.6 mph - N/A   Overcast
5:35 PM 62.6 °F 51.8 °F 68% 30.25 in 10.0 mi North 6.9 mph - N/A   Overcast
5:55 PM 62.6 °F 51.8 °F 68% 30.25 in 10.0 mi North 8.1 mph - N/A   Overcast
6:15 PM 62.6 °F 51.8 °F 68% 30.26 in 10.0 mi North 5.8 mph - N/A   Overcast
6:35 PM 62.6 °F 51.8 °F 68% 30.27 in 10.0 mi North 4.6 mph - N/A   Overcast
6:55 PM 62.6 °F 51.8 °F 68% 30.27 in 10.0 mi North 5.8 mph - N/A   Overcast
7:15 PM 62.6 °F 51.8 °F 68% 30.27 in 10.0 mi North 5.8 mph - N/A   Overcast
7:35 PM 60.8 °F 51.8 °F 72% 30.27 in 10.0 mi North 4.6 mph - N/A   Overcast
7:55 PM 60.8 °F 51.8 °F 72% 30.28 in 10.0 mi North 4.6 mph - N/A   Overcast
8:15 PM 60.8 °F 51.8 °F 72% 30.28 in 10.0 mi North 4.6 mph - N/A   Overcast
8:35 PM 60.8 °F 51.8 °F 72% 30.28 in 10.0 mi North 5.8 mph - N/A   Overcast
8:55 PM 60.8 °F 51.8 °F 72% 30.28 in 10.0 mi North 10.4 mph - N/A   Overcast
9:15 PM 60.8 °F 50.0 °F 68% 30.27 in 10.0 mi North 5.8 mph - N/A   Overcast
9:35 PM 60.8 °F 50.0 °F 68% 30.27 in 10.0 mi North 6.9 mph - N/A   Overcast
9:55 PM 60.8 °F 50.0 °F 68% 30.27 in 10.0 mi North 6.9 mph - N/A   Overcast
10:15 PM 60.8 °F 48.2 °F 63% 30.26 in 10.0 mi NNE 15.0 mph 20.7 mph N/A   Overcast
10:35 PM 59.0 °F 48.2 °F 67% 30.26 in 10.0 mi NNE 12.7 mph 19.6 mph N/A   Overcast
10:55 PM 59.0 °F 48.2 °F 67% 30.26 in 10.0 mi NNE 8.1 mph - N/A   Overcast
11:15 PM 59.0 °F 48.2 °F 67% 30.25 in 10.0 mi North 6.9 mph - N/A   Overcast
11:35 PM 59.0 °F 48.2 °F 67% 30.25 in 10.0 mi NNE 6.9 mph - N/A   Overcast
11:55 PM 59.0 °F 48.2 °F 67% 30.25 in 10.0 mi NNE 5.8 mph - N/A   Overcast